weather.gov     
National Weather Service

Regional Weather Roundup
NWS Homepage
This page is being discontinued on March 12, 2014.
The same data is available at this site. Please update your bookmarks.
Thank you, and we apologize for the inconvenience.
Please send an email to SR-SRH.Webmaster@noaa.gov with any concerns.


Current Version
Previous Version:    01  02  03  04  05  06  07  08  09  10  11  12  13  14  15  16  17  18  19  20  21  22  23  24  25  26  
[Printable]
215
ASUS41 KRLX 232210
RWRRLX
West Virginia Regional Weather Roundup
National Weather Service Charleston WV
500 PM EST SUN NOV 23 2014

Note: "fair" indicates few or no clouds below 12,000 feet with no
significant weather and/or obstructions to visibility.

WVZ003-232300-
Northern Panhandle of West Virginia

CITY           SKY/WX    TMP DP  RH WIND       PRES   REMARKS
WHEELING       CLOUDY    61  45  55 SE13      29.79F
$$

WVZ009-232300-
Northwest West Virginia

CITY           SKY/WX    TMP DP  RH WIND       PRES   REMARKS
PARKERSBURG    CLOUDY    62  42  47 SE10      29.79F
$$

WVZ006-232300-
Western West Virginia

CITY           SKY/WX    TMP DP  RH WIND       PRES   REMARKS
HUNTINGTON     LGT RAIN  57  51  80 SE10      29.70F
$$

WVZ015-232300-
West Central West Virginia

CITY           SKY/WX    TMP DP  RH WIND       PRES   REMARKS
CHARLESTON     LGT RAIN  57  46  66 SE12G17   29.76F
$$

WVZ022-031-232300-
North Central West Virginia

CITY           SKY/WX    TMP DP  RH WIND       PRES   REMARKS
CLARKSBURG     MOCLDY    60  41  49 SE15G25   29.83F
MORGANTOWN     MOCLDY    62  36  37 SE12      29.84F
$$

WVZ025-035-042-045-232300-
Southern West Virginia

CITY           SKY/WX    TMP DP  RH WIND       PRES   REMARKS
BECKLEY        CLOUDY    50  44  80 SE18G25   29.85F
LOGAN          CLOUDY    55  48  76 SE14G21   29.74F
BLUEFIELD      LGT RAIN  52  46  80 SE22G44   29.87F
LEWISBURG      DRIZZLE   50  43  77 E5        29.95F
$$

WVZ047-232300-
Northern Mountains of West Virginia

CITY           SKY/WX    TMP DP  RH WIND       PRES   REMARKS
ELKINS         CLOUDY    55  43  63 S15G21    29.89F
$$

WVZ052-232300-
Eastern Panhandle of West Virginia

CITY           SKY/WX    TMP DP  RH WIND       PRES   REMARKS
MARTINSBURG    CLOUDY    53  32  44 S7        30.02F
PETERSBURG     MOCLDY    57  37  47 S6        29.97F
$$




U.S. Dept. of Commerce
NOAA National Weather Service
1325 East West Highway
Silver Spring, MD 20910
E-mail: w-nws.webmaster@noaa.gov
Page last modified: May 16, 2007
NATIONAL WEATHER SERVICE: for Safety, for Work, for Fun - FOR LIFE